Tanger, Morocco

10:51 AM WEST on July 26, 2017 (GMT +0100)
Tanger

Weather History for GMTT - November, 2011

Change the Weather History Date:

Tuesday, November 1, 2011

  Actual Average Record
Temperature  
Mean Temperature 64 °F -  
Max Temperature 72 °F 65 °F 86 °F (2006)
Min Temperature 57 °F 51 °F 46 °F (2000)
Growing Degree Days 14 (Base 50)    
Moisture  
Dew Point 60 °F    
Average Humidity 84    
Maximum Humidity 94    
Minimum Humidity 63    
Precipitation  
Precipitation 0.00 in 0.18 in - ()
Sea Level Pressure  
Sea Level Pressure 30.04 in    
Wind  
Wind Speed 5 mph ()    
Max Wind Speed 12 mph    
Max Gust Speed -    
Visibility 3.5 miles    
Events      
Averages and records for this station are not official NWS values.
T = Trace of Precipitation, MM = Missing Value Source: Averaged Metar Reports

Daily Weather History Graph

Daily Weather History Graph

Search for Another Location

Airport or City:

Trip Planner

Search our weather history database for the weather conditions in past years. The results will help you decide how hot, cold, wet, or windy it might be!

Date:

Astronomy

Nov. 01, 2011 Rise Set
Actual Time 6:45 AM WET 5:28 PM WET
Civil Twilight 6:18 AM WET 5:55 PM WET
Nautical Twilight 5:48 AM WET 6:25 PM WET
Astronomical Twilight 5:18 AM WET 6:54 PM WET
Moon 12:20 PM WET (11/1) 10:57 PM WET (11/1)
Length of Visible Light 11h 36m
Length of Day
10h 43m
Waxing Crescent, 38% of the Moon is Illuminated
Nov 1
Waxing Crescent
Nov 2
First Quarter
Nov 10
Full
Nov 18
Last Quarter
Nov 25
New

Hourly Weather History & Observations

Time (WET) Temp. Dew Point Humidity Pressure Visibility Wind Dir Wind Speed Gust Speed Precip Events Conditions
12:00 AM 61 °F 58 °F 85% 30.06 in 5 mi NE 2.3 mph - -   Partly Cloudy
12:00 AM 60.8 °F 57.2 °F 88% 30.04 in 5.0 mi Variable 2.3 mph - N/A   Scattered Clouds
12:30 AM 60.8 °F 57.2 °F 88% 30.04 in 5.0 mi East 5.8 mph - N/A   Scattered Clouds
1:00 AM 60.8 °F 57.2 °F 88% 30.04 in 5.0 mi Variable 2.3 mph - N/A   Scattered Clouds
1:30 AM 59.0 °F 57.2 °F 94% 30.04 in 1.1 mi Calm Calm - N/A   Mostly Cloudy
2:00 AM 57.2 °F 55.4 °F 94% 30.04 in 1.0 mi ENE 1.2 mph - N/A   Mostly Cloudy
2:30 AM 60.8 °F 57.2 °F 88% 30.04 in 0.9 mi East 4.6 mph - N/A   Unknown
3:00 AM 60 °F 57 °F 86% 30.05 in 1 mi East 3.5 mph - -  
3:00 AM 59.0 °F 57.2 °F 94% 30.04 in 0.9 mi East 3.5 mph - N/A   Unknown
3:30 AM 59.0 °F 55.4 °F 88% 30.04 in 0.9 mi ESE 3.5 mph - N/A   Unknown
4:00 AM 59.0 °F 55.4 °F 88% 30.04 in 0.9 mi ESE 4.6 mph - N/A   Unknown
4:30 AM 59.0 °F 55.4 °F 88% 30.04 in 0.9 mi Variable 2.3 mph - N/A   Unknown
5:00 AM 60.8 °F 59.0 °F 94% 30.04 in 3.1 mi East 2.3 mph - N/A   Scattered Clouds
5:09 AM 60.8 °F 59.0 °F 94% 30.04 in 2.5 mi East 3.5 mph - N/A   Mostly Cloudy
5:30 AM 60.8 °F 59.0 °F 94% 30.06 in 2.5 mi East 3.5 mph - N/A   Mostly Cloudy
6:00 AM 61 °F 58 °F 88% 30.07 in 2 mi East 3.5 mph - -   Mist
6:00 AM 60.8 °F 59.0 °F 94% 30.06 in 2.5 mi East 3.5 mph - N/A   Mostly Cloudy
6:30 AM 59.0 °F 57.2 °F 94% 30.06 in 2.5 mi East 6.9 mph - N/A   Mostly Cloudy
7:00 AM 59.0 °F 57.2 °F 94% 30.06 in 2.5 mi East 8.1 mph - N/A   Scattered Clouds
7:30 AM 60.8 °F 57.2 °F 88% 30.06 in 2.5 mi ESE 4.6 mph - N/A   Scattered Clouds
8:00 AM 60.8 °F 59.0 °F 94% 30.06 in 2.5 mi ESE 5.8 mph - N/A   Scattered Clouds
8:11 AM 62.6 °F 60.8 °F 94% 30.06 in 3.7 mi East 5.8 mph - N/A   Scattered Clouds
8:30 AM 64.4 °F 60.8 °F 88% 30.06 in 3.7 mi ESE 6.9 mph - N/A   Scattered Clouds
9:00 AM 66 °F 61 °F 79% 30.10 in 5 mi ESE 6.9 mph - -   Scattered Clouds
9:00 AM 66.2 °F 60.8 °F 83% 30.09 in 5.0 mi ESE 6.9 mph - N/A   Scattered Clouds
9:30 AM 66.2 °F 60.8 °F 83% 30.06 in 5.0 mi ESE 4.6 mph - N/A   Scattered Clouds
10:00 AM 69.8 °F 60.8 °F 73% 30.09 in 5.0 mi South 6.9 mph - N/A   Scattered Clouds
10:30 AM 71.6 °F 60.8 °F 69% 30.09 in 5.0 mi SSW 9.2 mph - N/A   Mostly Cloudy
11:00 AM 69.8 °F 62.6 °F 78% 30.09 in 5.0 mi WSW 10.4 mph - N/A   Mostly Cloudy
11:30 AM 69.8 °F 62.6 °F 78% 30.06 in 5.0 mi West 10.4 mph - N/A   Mostly Cloudy
12:00 PM 72 °F 62 °F 63% 30.08 in 5 mi WSW 10.4 mph - -   Mostly Cloudy
12:00 PM 71.6 °F 62.6 °F 73% 30.06 in 5.0 mi WSW 10.4 mph - N/A   Mostly Cloudy
12:30 PM 71.6 °F 62.6 °F 73% 30.06 in 5.0 mi WSW 9.2 mph - N/A   Scattered Clouds
1:00 PM 71.6 °F 62.6 °F 73% 30.04 in 5.0 mi West 11.5 mph - N/A   Scattered Clouds
1:30 PM 71.6 °F 62.6 °F 73% 30.04 in 5.0 mi West 9.2 mph - N/A   Scattered Clouds
2:00 PM 69.8 °F 62.6 °F 78% 30.04 in 5.0 mi West 10.4 mph - N/A   Scattered Clouds
2:30 PM 69.8 °F 62.6 °F 78% 30.04 in 5.0 mi West 10.4 mph - N/A   Scattered Clouds
3:00 PM 70 °F 61 °F 66% 30.04 in 5 mi West 10.4 mph - -   Partly Cloudy
3:00 PM 69.8 °F 60.8 °F 73% 30.04 in 5.0 mi West 10.4 mph - N/A   Scattered Clouds
3:30 PM 69.8 °F 60.8 °F 73% 30.04 in 5.0 mi WNW 6.9 mph - N/A   Scattered Clouds
4:00 PM 69.8 °F 60.8 °F 73% 30.01 in 5.0 mi WNW 5.8 mph - N/A   Scattered Clouds
4:30 PM 69.8 °F 62.6 °F 78% 30.01 in 5.0 mi NW 3.5 mph - N/A   Scattered Clouds
5:00 PM 68.0 °F 60.8 °F 78% 30.01 in 3.7 mi Variable 1.2 mph - N/A   Mostly Cloudy
5:30 PM 68.0 °F 60.8 °F 78% 30.01 in 3.7 mi Calm Calm - N/A   Mostly Cloudy
6:00 PM 65 °F 60 °F 80% 30.03 in 3 mi ENE 5.8 mph - -   Partly Cloudy
6:00 PM 66.2 °F 60.8 °F 83% 30.01 in 3.1 mi ENE 5.8 mph - N/A   Mostly Cloudy
6:30 PM 64.4 °F 60.8 °F 88% 30.01 in 3.1 mi ENE 5.8 mph - N/A   Mostly Cloudy
7:00 PM 64.4 °F 59.0 °F 83% 30.04 in 3.1 mi NNE 3.5 mph - N/A   Mostly Cloudy
7:30 PM 62.6 °F 59.0 °F 88% 30.04 in 3.1 mi NE 2.3 mph - N/A   Mostly Cloudy
8:00 PM 62.6 °F 59.0 °F 88% 30.04 in 3.1 mi ESE 4.6 mph - N/A   Mostly Cloudy
8:30 PM 62.6 °F 59.0 °F 88% 30.01 in 3.1 mi ESE 6.9 mph - N/A   Mostly Cloudy
9:00 PM 63 °F 60 °F 85% 30.03 in 3 mi ESE 6.9 mph - -   Partly Cloudy
9:00 PM 62.6 °F 59.0 °F 88% 30.01 in 3.1 mi ESE 6.9 mph - N/A   Mostly Cloudy
9:30 PM 62.6 °F 59.0 °F 88% 30.01 in 3.1 mi ESE 6.9 mph - N/A   Mostly Cloudy
10:00 PM 62.6 °F 59.0 °F 88% 30.01 in 3.1 mi East 4.6 mph - N/A   Mostly Cloudy
10:30 PM 62.6 °F 59.0 °F 88% 30.01 in 3.1 mi East 5.8 mph - N/A   Mostly Cloudy
11:00 PM 64.4 °F 60.8 °F 88% 30.01 in 3.1 mi East 8.1 mph - N/A   Mostly Cloudy
11:30 PM 64.4 °F 60.8 °F 88% 30.01 in 3.1 mi East 9.2 mph - N/A   Mostly Cloudy